TimeEST,TemperatureF,Dew PointF,Humidity,Sea Level PressureIn,VisibilityMPH,Wind Direction,Wind SpeedMPH,Gust SpeedMPH,PrecipitationIn,Events,Conditions,WindDirDegrees,DateUTC
12:41 AM,46.4,39.2,76,30.36,10.0,NE,15.0,-,N/A,,Overcast,40,2012-11-14 05:41:00
12:54 AM,46.0,37.9,73,30.36,10.0,NE,13.8,-,N/A,,Overcast,40,2012-11-14 05:54:00
1:37 AM,46.4,39.2,76,30.36,10.0,NE,12.7,21.9,N/A,,Overcast,40,2012-11-14 06:37:00
1:54 AM,46.0,37.9,73,30.36,10.0,NE,12.7,18.4,N/A,,Overcast,50,2012-11-14 06:54:00
2:54 AM,46.0,37.0,71,30.35,10.0,NE,11.5,-,N/A,,Overcast,50,2012-11-14 07:54:00
3:54 AM,46.0,37.9,73,30.36,10.0,NE,15.0,20.7,N/A,,Overcast,40,2012-11-14 08:54:00
4:54 AM,46.0,37.0,71,30.37,10.0,NE,11.5,-,N/A,,Overcast,40,2012-11-14 09:54:00
5:54 AM,45.0,36.0,71,30.38,10.0,NNE,11.5,-,N/A,,Overcast,20,2012-11-14 10:54:00
6:18 AM,44.6,35.6,71,30.38,10.0,NNE,11.5,21.9,N/A,,Overcast,30,2012-11-14 11:18:00
6:49 AM,44.6,33.8,66,30.39,10.0,NNE,15.0,-,N/A,,Overcast,30,2012-11-14 11:49:00
6:54 AM,44.1,33.1,65,30.40,10.0,NNE,15.0,-,N/A,,Overcast,30,2012-11-14 11:54:00
7:04 AM,42.8,33.8,70,30.39,10.0,NNE,12.7,24.2,N/A,,Overcast,30,2012-11-14 12:04:00
7:35 AM,42.8,32.0,66,30.40,10.0,NNE,12.7,19.6,N/A,,Overcast,30,2012-11-14 12:35:00
7:54 AM,42.1,32.0,67,30.41,10.0,NE,17.3,24.2,N/A,,Overcast,40,2012-11-14 12:54:00
8:54 AM,43.0,33.1,68,30.43,10.0,NNE,16.1,-,N/A,,Overcast,30,2012-11-14 13:54:00
9:54 AM,45.0,35.1,68,30.44,10.0,NNE,12.7,-,N/A,,Overcast,30,2012-11-14 14:54:00
10:54 AM,48.0,37.0,66,30.43,9.0,NE,13.8,23.0,N/A,,Overcast,40,2012-11-14 15:54:00
11:54 AM,50.0,39.0,66,30.40,10.0,NNE,16.1,19.6,N/A,,Overcast,30,2012-11-14 16:54:00
12:54 PM,50.0,39.0,66,30.38,10.0,NE,10.4,-,N/A,,Overcast,40,2012-11-14 17:54:00
1:54 PM,52.0,39.9,63,30.36,10.0,NE,10.4,-,N/A,,Overcast,40,2012-11-14 18:54:00
2:42 PM,53.6,41.0,62,30.34,10.0,NE,12.7,-,N/A,,Scattered Clouds,40,2012-11-14 19:42:00
2:54 PM,54.0,39.0,57,30.34,10.0,North,13.8,-,N/A,,Scattered Clouds,10,2012-11-14 19:54:00
3:54 PM,53.1,37.0,55,30.35,10.0,North,10.4,-,N/A,,Clear,10,2012-11-14 20:54:00
4:54 PM,52.0,36.0,54,30.34,10.0,NNE,11.5,-,N/A,,Mostly Cloudy,30,2012-11-14 21:54:00
5:33 PM,51.8,37.4,58,30.33,10.0,North,5.8,-,N/A,,Overcast,10,2012-11-14 22:33:00
5:54 PM,51.1,37.0,59,30.34,10.0,NNE,5.8,-,N/A,,Overcast,30,2012-11-14 22:54:00
6:54 PM,51.1,37.9,61,30.35,10.0,North,8.1,-,N/A,,Overcast,10,2012-11-14 23:54:00
7:54 PM,51.1,37.9,61,30.35,10.0,NE,8.1,-,N/A,,Overcast,40,2012-11-15 00:54:00
8:54 PM,50.0,36.0,59,30.35,10.0,NE,9.2,-,N/A,,Overcast,40,2012-11-15 01:54:00
9:54 PM,50.0,36.0,59,30.35,10.0,NNE,12.7,-,N/A,,Overcast,30,2012-11-15 02:54:00
10:54 PM,48.9,37.0,64,30.33,10.0,NE,12.7,-,N/A,,Overcast,40,2012-11-15 03:54:00
11:54 PM,48.9,37.0,64,30.34,10.0,NNE,8.1,-,N/A,,Overcast,30,2012-11-15 04:54:00